GW5357 Weather Reports


Display with metric or nautical units.
time (UTC)temp
F
wind
direction
speed
MPH
gust
MPH
rain 1hr
in
rain 24hr
in
rain mn
in
humidity
%
barometer
mb
20260504194506 70 157 2.0 7.0 0.00 0.00 0.00 59 1010.4
20260504194005 70 126 2.0 6.0 0.00 0.00 0.00 60 1010.4
20260504193505 70 174 2.0 6.0 0.00 0.00 0.00 59 1010.4
20260504193006 70 178 2.0 5.0 0.00 0.00 0.00 62 1010.4
20260504192504 70 314 2.0 5.0 0.00 0.00 0.00 60 1010.3
20260504192005 70 195 2.0 5.0 0.00 0.00 0.00 60 1010.3
20260504191505 69 178 3.0 7.0 0.00 0.00 0.00 60 1010.4
20260504191006 69 178 3.0 7.0 0.00 0.00 0.00 59 1010.4
20260504190505 69 254 1.0 6.0 0.00 0.00 0.00 59 1010.4
20260504185505 69 178 3.0 6.0 0.00 0.00 0.00 61 1010.5
20260504185006 69 200 2.0 6.0 0.00 0.00 0.00 61 1010.5
20260504184005 69 154 1.0 6.0 0.00 0.00 0.00 65 1010.4
20260504183505 68 139 2.0 7.0 0.00 0.00 0.00 64 1010.5
20260504183006 68 223 2.0 7.0 0.00 0.00 0.00 64 1010.5
20260504182505 68 301 3.0 6.0 0.00 0.00 0.00 64 1010.5
20260504182004 68 161 2.0 5.0 0.00 0.00 0.00 66 1010.5
20260504181505 67 178 2.0 5.0 0.00 0.00 0.00 67 1010.6
20260504181005 67 241 3.0 6.0 0.00 0.00 0.00 67 1010.5
20260504180505 66 303 4.0 6.0 0.00 0.00 0.00 66 1010.5
20260504180327 67 89 3.0 6.0 0.00 0.00 0.00 68 1010.4
20260504151006 56 1 1.0 3.0 0.00 0.00 0.00 81 1010.5
20260504150504 55 1 1.0 3.0 0.00 0.00 0.00 82 1010.5
20260504141004 50 89 1.0 2.0 0.00 0.00 0.00 92 1009.9
20260504140505 50 161 0.0 2.0 0.00 0.00 0.00 92 1009.9
20260504130504 49 331 0.0 1.0 0.00 0.00 0.00 91 1009.4
20260504100504 51 331 1.0 2.0 0.00 0.00 0.00 89 1009.4
20260504082005 52 344 1.0 2.0 0.00 0.00 0.00 86 1009.5
20260504081505 53 331 0.0 2.0 0.00 0.00 0.00 86 1009.5
20260504081004 53 314 1.0 2.0 0.00 0.00 0.00 85 1009.5
20260504080504 53 340 1.0 2.0 0.00 0.00 0.00 86 1009.5
20260504045505 57 324 1.0 2.0 0.00 0.00 0.00 80 1009.5
20260504045005 57 344 1.0 2.0 0.00 0.00 0.00 79 1009.6
20260504044505 57 1 1.0 2.0 0.00 0.00 0.00 79 1009.5
20260504044005 57 1 0.0 3.0 0.00 0.00 0.00 78 1009.6
20260504043006 58 269 1.0 2.0 0.00 0.00 0.00 78 1009.6
20260504042505 58 1 1.0 2.0 0.00 0.00 0.00 77 1009.5
20260504042005 58 1 0.0 2.0 0.00 0.00 0.00 76 1009.6
20260504041005 59 331 1.0 2.0 0.00 0.00 0.00 76 1009.6
20260504040506 59 1 0.0 1.0 0.00 0.00 0.00 76 1009.7
20260504040006 59 1 0.0 2.0 0.00 0.00 0.00 76 1009.6
20260504035006 60 340 1.0 2.0 0.00 0.00 0.00 74 1009.6
20260504034505 61 336 1.0 2.0 0.00 0.00 0.00 72 1009.6
20260504033505 62 1 0.0 2.0 0.00 0.00 0.00 72 1009.7
20260504033007 62 1 1.0 2.0 0.00 0.00 0.00 70 1009.7
20260504032505 63 1 0.0 2.0 0.00 0.00 0.00 68 1009.6
20260504032005 63 340 1.0 2.0 0.00 0.00 0.00 67 1009.6
20260504031505 64 46 0.0 2.0 0.00 0.00 0.00 66 1009.5
20260504031005 64 286 0.0 1.0 0.00 0.00 0.00 65 1009.5
20260504030505 65 89 0.0 1.0 0.00 0.00 0.00 64 1009.6
20260504030007 66 46 0.0 1.0 0.00 0.00 0.00 63 1009.5
20260504025505 66 135 0.0 2.0 0.00 0.00 0.00 63 1009.6
20260504025008 67 152 0.0 2.0 0.00 0.00 0.00 62 1009.5
20260504024007 68 269 1.0 2.0 0.00 0.00 0.00 60 1009.6
20260504023504 68 286 0.0 3.0 0.00 0.00 0.00 59 1009.5
20260504023006 69 269 1.0 4.0 0.00 0.00 0.00 57 1009.6
20260504022505 69 296 1.0 4.0 0.00 0.00 0.00 59 1009.6
20260504022005 69 178 0.0 2.0 0.00 0.00 0.00 59 1009.6
20260504021505 69 46 1.0 3.0 0.00 0.00 0.00 58 1009.7
20260504021005 69 89 1.0 3.0 0.00 0.00 0.00 57 1009.8
20260504020504 69 1 1.0 3.0 0.00 0.00 0.00 57 1009.9
20260504020006 69 152 1.0 3.0 0.00 0.00 0.00 56 1010.0
20260504015504 70 178 1.0 3.0 0.00 0.00 0.00 55 1010.1
20260504015006 70 178 1.0 3.0 0.00 0.00 0.00 55 1010.0
20260504014505 70 206 1.0 4.0 0.00 0.00 0.00 55 1010.1
20260504014005 71 193 2.0 4.0 0.00 0.00 0.00 54 1010.0
20260504013505 71 314 1.0 5.0 0.00 0.00 0.00 55 1010.1
20260504013006 72 269 2.0 5.0 0.00 0.00 0.00 53 1010.1
20260504012005 73 138 3.0 4.0 0.00 0.00 0.00 54 1010.2
20260504011505 74 278 2.0 4.0 0.00 0.00 0.00 52 1010.2
20260504011005 74 206 1.0 4.0 0.00 0.00 0.00 52 1010.2
20260504010505 74 306 2.0 4.0 0.00 0.00 0.00 52 1010.3
20260504010006 74 178 1.0 3.0 0.00 0.00 0.00 53 1010.4
20260504005505 74 223 2.0 3.0 0.00 0.00 0.00 53 1010.4
20260504005005 74 303 1.0 3.0 0.00 0.00 0.00 60 1010.5
20260504004506 73 108 1.0 4.0 0.00 0.00 0.00 55 1010.5
20260504004005 73 283 2.0 5.0 0.00 0.00 0.00 54 1010.6
20260504003505 73 178 3.0 5.0 0.00 0.00 0.00 55 1010.6
20260504003006 73 195 2.0 5.0 0.00 0.00 0.00 57 1010.6
20260504002506 73 135 2.0 6.0 0.00 0.00 0.00 56 1010.6
20260504002005 74 197 3.0 6.0 0.00 0.00 0.00 54 1010.6
20260504001505 75 135 2.0 5.0 0.00 0.00 0.00 53 1010.6
20260504001005 75 296 1.0 5.0 0.00 0.00 0.00 53 1010.7
20260504000505 74 117 3.0 6.0 0.00 0.00 0.00 57 1010.6
20260504000007 74 124 2.0 6.0 0.00 0.00 0.00 60 1010.7
20260503235005 74 100 3.0 7.0 0.00 0.00 0.00 55 1010.9
20260503234505 75 124 3.0 7.0 0.00 0.00 0.00 54 1011.0
20260503234006 75 122 3.0 7.0 0.00 0.00 0.00 55 1010.9
20260503233504 76 130 2.0 8.0 0.00 0.00 0.00 55 1010.9
20260503233005 77 145 3.0 8.0 0.00 0.00 0.00 51 1011.0
20260503232504 77 250 2.0 6.0 0.00 0.00 0.00 47 1011.0
20260503232007 77 1 2.0 6.0 0.00 0.00 0.00 45 1011.1
20260503231505 77 335 3.0 7.0 0.00 0.00 0.00 47 1011.1
20260503231005 76 300 3.0 7.0 0.00 0.00 0.00 47 1011.3
20260503230505 76 1 4.0 7.0 0.00 0.00 0.00 47 1011.3
20260503230006 77 284 3.0 7.0 0.00 0.00 0.00 49 1011.5
20260503225505 76 178 3.0 7.0 0.00 0.00 0.00 50 1011.5
20260503225005 76 1 1.0 7.0 0.00 0.00 0.00 50 1011.6
20260503224509 76 344 3.0 7.0 0.00 0.00 0.00 45 1011.7
20260503224005 77 354 3.0 8.0 0.00 0.00 0.00 42 1011.7
20260503223505 77 303 3.0 8.0 0.00 0.00 0.00 45 1011.8
20260503222505 77 335 3.0 5.0 0.00 0.00 0.00 49 1011.8
20260503221505 76 276 3.0 6.0 0.00 0.00 0.00 46 1012.0
20260503221006 75 1 2.0 6.0 0.00 0.00 0.00 49 1012.0
20260503220505 75 1 3.0 5.0 0.00 0.00 0.00 45 1012.0
20260503220010 75 264 2.0 6.0 0.00 0.00 0.00 47 1012.1
20260503215505 74 279 3.0 7.0 0.00 0.00 0.00 47 1012.2
20260503215005 74 229 3.0 8.0 0.00 0.00 0.00 47 1012.3
20260503214505 74 351 5.0 9.0 0.00 0.00 0.00 45 1012.2
20260503214006 75 356 4.0 9.0 0.00 0.00 0.00 46 1012.3
20260503213504 75 276 3.0 7.0 0.00 0.00 0.00 44 1012.5
20260503213007 75 342 3.0 7.0 0.00 0.00 0.00 46 1012.5
20260503212505 75 350 4.0 7.0 0.00 0.00 0.00 46 1012.4
20260503212006 75 272 4.0 7.0 0.00 0.00 0.00 44 1012.4
20260503211505 75 309 3.0 7.0 0.00 0.00 0.00 46 1012.4
20260503211006 75 284 2.0 6.0 0.00 0.00 0.00 47 1012.6
20260503205506 74 264 4.0 8.0 0.00 0.00 0.00 43 1012.7
20260503205005 74 241 3.0 8.0 0.00 0.00 0.00 48 1012.7
20260503204506 74 269 3.0 8.0 0.00 0.00 0.00 46 1012.8
20260503204006 73 299 3.0 7.0 0.00 0.00 0.00 43 1013.0
20260503203504 73 348 3.0 10.0 0.00 0.00 0.00 45 1013.1
20260503203006 72 257 6.0 10.0 0.00 0.00 0.00 45 1013.2
20260503202005 72 314 5.0 9.0 0.00 0.00 0.00 49 1013.4
20260503201505 72 13 5.0 9.0 0.00 0.00 0.00 47 1013.5
20260503201006 72 269 5.0 8.0 0.00 0.00 0.00 49 1013.4
20260503200505 72 314 4.0 9.0 0.00 0.00 0.00 51 1013.6
20260503195504 71 276 4.0 10.0 0.00 0.00 0.00 53 1013.7